Time,TemperatureF,DewpointF,PressureIn,WindDirection,WindDirectionDegrees,WindSpeedMPH,WindSpeedGustMPH,Humidity,HourlyPrecipIn,Conditions,Clouds,dailyrainin,SoftwareType,DateUTC
2013-11-08 00:00:00,46.8,23.1,29.53,North,0,0.0,0.0,39,0.00,,---,0.91,VWS V14.00,2013-11-08 08:00:00,
2013-11-08 00:05:00,46.8,23.1,29.53,North,0,0.0,0.0,39,0.00,,---,0.00,VWS V14.00,2013-11-08 08:05:00,
2013-11-08 00:10:00,46.8,23.1,29.53,North,0,0.0,0.0,39,0.00,,---,0.04,VWS V14.00,2013-11-08 08:10:00,
2013-11-08 00:15:00,46.8,23.1,29.53,North,0,0.0,0.0,39,0.00,,---,0.04,VWS V14.00,2013-11-08 08:15:00,
2013-11-08 00:20:00,46.9,23.3,29.53,North,0,0.0,0.0,39,0.00,,---,0.04,VWS V14.00,2013-11-08 08:20:00,
2013-11-08 00:25:00,46.9,23.3,29.53,North,0,0.0,0.0,39,0.00,,---,0.04,VWS V14.00,2013-11-08 08:25:00,
2013-11-08 00:30:00,46.9,23.3,29.53,North,0,0.0,0.0,39,0.00,,---,0.04,VWS V14.00,2013-11-08 08:30:00,
2013-11-08 00:35:00,46.9,23.3,29.53,North,0,0.0,0.0,39,0.00,,---,0.04,VWS V14.00,2013-11-08 08:35:00,
2013-11-08 00:40:00,46.9,23.3,29.53,North,0,0.0,0.0,39,0.00,,---,0.04,VWS V14.00,2013-11-08 08:40:00,
2013-11-08 00:45:00,46.9,23.3,29.53,North,0,0.0,0.0,39,0.00,,---,0.04,VWS V14.00,2013-11-08 08:45:00,
2013-11-08 00:50:00,46.9,23.3,29.56,North,0,0.0,0.0,39,0.00,,---,0.04,VWS V14.00,2013-11-08 08:50:00,
2013-11-08 00:55:00,46.9,23.3,29.56,North,0,0.0,0.0,39,0.00,,---,0.04,VWS V14.00,2013-11-08 08:55:00,
2013-11-08 01:00:00,46.9,23.3,29.56,North,0,0.0,0.0,39,0.00,,---,0.04,VWS V14.00,2013-11-08 09:00:00,
2013-11-08 01:05:00,46.9,23.3,29.56,North,0,0.0,0.0,39,0.00,,---,0.04,VWS V14.00,2013-11-08 09:05:00,
2013-11-08 01:10:00,46.9,23.3,29.56,North,0,0.0,0.0,39,0.00,,---,0.04,VWS V14.00,2013-11-08 09:10:00,
2013-11-08 01:16:00,46.9,23.3,29.56,North,0,0.0,0.0,39,0.00,,---,0.04,VWS V14.00,2013-11-08 09:16:00,
2013-11-08 01:21:00,46.8,23.1,29.56,North,0,0.0,0.0,39,0.00,,---,0.04,VWS V14.00,2013-11-08 09:21:00,
2013-11-08 01:26:00,46.8,23.1,29.56,North,0,0.0,0.0,39,0.00,,---,0.04,VWS V14.00,2013-11-08 09:26:00,
2013-11-08 01:31:00,46.6,23.0,29.56,North,0,0.0,0.0,39,0.00,,---,0.04,VWS V14.00,2013-11-08 09:31:00,
2013-11-08 01:36:00,46.4,22.8,29.56,North,0,0.0,0.0,39,0.00,,---,0.04,VWS V14.00,2013-11-08 09:36:00,
2013-11-08 01:41:00,46.2,22.6,29.56,North,0,0.0,0.0,39,0.00,,---,0.04,VWS V14.00,2013-11-08 09:41:00,
2013-11-08 01:46:00,46.2,22.6,29.56,North,0,0.0,0.0,39,0.00,,---,0.04,VWS V14.00,2013-11-08 09:46:00,
2013-11-08 01:51:00,46.2,22.6,29.56,North,0,0.0,0.0,39,0.00,,---,0.04,VWS V14.00,2013-11-08 09:51:00,
2013-11-08 01:56:00,46.0,22.5,29.56,North,0,0.0,0.0,39,0.00,,---,0.04,VWS V14.00,2013-11-08 09:56:00,
2013-11-08 02:01:00,46.0,22.5,29.56,North,0,0.0,0.0,39,0.00,,---,0.04,VWS V14.00,2013-11-08 10:01:00,
2013-11-08 02:06:00,46.0,22.5,29.56,North,0,0.0,0.0,39,0.00,,---,0.04,VWS V14.00,2013-11-08 10:06:00,
2013-11-08 02:11:00,46.0,22.5,29.56,North,0,0.0,0.0,39,0.00,,---,0.04,VWS V14.00,2013-11-08 10:11:00,
2013-11-08 02:16:00,46.0,22.5,29.56,North,0,0.0,0.0,39,0.00,,---,0.04,VWS V14.00,2013-11-08 10:16:00,
2013-11-08 02:21:00,45.9,22.3,29.56,North,0,0.0,0.0,39,0.00,,---,0.04,VWS V14.00,2013-11-08 10:21:00,
2013-11-08 02:26:00,45.9,22.3,29.56,North,0,0.0,0.0,39,0.00,,---,0.04,VWS V14.00,2013-11-08 10:26:00,
2013-11-08 02:31:00,45.9,22.3,29.56,North,0,0.0,0.0,39,0.00,,---,0.04,VWS V14.00,2013-11-08 10:31:00,
2013-11-08 02:36:00,45.9,22.3,29.56,North,0,0.0,0.0,39,0.00,,---,0.04,VWS V14.00,2013-11-08 10:36:00,
2013-11-08 02:41:00,45.9,22.3,29.56,North,0,0.0,0.0,39,0.00,,---,0.04,VWS V14.00,2013-11-08 10:41:00,
2013-11-08 02:46:00,45.9,22.3,29.56,North,0,0.0,0.0,39,0.00,,---,0.04,VWS V14.00,2013-11-08 10:46:00,
2013-11-08 02:51:00,45.9,22.3,29.56,North,0,0.0,0.0,39,0.00,,---,0.04,VWS V14.00,2013-11-08 10:51:00,
2013-11-08 02:56:00,45.9,22.3,29.56,North,0,0.0,0.0,39,0.00,,---,0.04,VWS V14.00,2013-11-08 10:56:00,
2013-11-08 03:01:00,45.9,22.9,29.56,North,0,0.0,0.0,40,0.00,,---,0.04,VWS V14.00,2013-11-08 11:01:00,
2013-11-08 03:07:00,45.9,22.3,29.56,North,0,0.0,0.0,39,0.00,,---,0.04,VWS V14.00,2013-11-08 11:07:00,
2013-11-08 03:12:00,45.7,22.2,29.56,North,0,0.0,0.0,39,0.00,,---,0.04,VWS V14.00,2013-11-08 11:12:00,
2013-11-08 03:17:00,45.5,22.0,29.56,North,0,0.0,0.0,39,0.00,,---,0.04,VWS V14.00,2013-11-08 11:17:00,
2013-11-08 03:22:00,45.5,22.0,29.56,North,0,0.0,0.0,39,0.00,,---,0.04,VWS V14.00,2013-11-08 11:22:00,
2013-11-08 03:27:00,45.3,21.8,29.56,North,0,0.0,0.0,39,0.00,,---,0.04,VWS V14.00,2013-11-08 11:27:00,
2013-11-08 03:32:00,45.3,21.8,29.56,North,0,0.0,0.0,39,0.00,,---,0.04,VWS V14.00,2013-11-08 11:32:00,
2013-11-08 03:37:00,45.1,21.7,29.59,North,0,0.0,0.0,39,0.00,,---,0.04,VWS V14.00,2013-11-08 11:37:00,
2013-11-08 03:42:00,45.1,21.7,29.59,North,0,0.0,0.0,39,0.00,,---,0.04,VWS V14.00,2013-11-08 11:42:00,
2013-11-08 03:47:00,45.1,21.7,29.59,North,0,0.0,0.0,39,0.00,,---,0.04,VWS V14.00,2013-11-08 11:47:00,
2013-11-08 03:52:00,45.0,21.5,29.59,North,0,0.0,0.0,39,0.00,,---,0.04,VWS V14.00,2013-11-08 11:52:00,
2013-11-08 03:57:00,45.0,21.5,29.59,North,0,0.0,0.0,39,0.00,,---,0.04,VWS V14.00,2013-11-08 11:57:00,
2013-11-08 04:02:00,45.0,21.5,29.59,North,0,0.0,0.0,39,0.00,,---,0.08,VWS V14.00,2013-11-08 12:02:00,
2013-11-08 04:07:00,45.0,21.5,29.59,North,0,0.0,0.0,39,0.00,,---,0.08,VWS V14.00,2013-11-08 12:07:00,
2013-11-08 04:12:00,45.0,21.5,29.59,North,0,0.0,0.0,39,0.00,,---,0.08,VWS V14.00,2013-11-08 12:12:00,
2013-11-08 04:17:00,45.0,21.5,29.59,North,0,0.0,0.0,39,0.00,,---,0.08,VWS V14.00,2013-11-08 12:17:00,
2013-11-08 04:22:00,45.0,21.5,29.59,North,0,0.0,0.0,39,0.00,,---,0.08,VWS V14.00,2013-11-08 12:22:00,
2013-11-08 04:27:00,45.0,22.1,29.59,North,0,0.0,0.0,40,0.00,,---,0.08,VWS V14.00,2013-11-08 12:27:00,
2013-11-08 04:32:00,45.1,22.3,29.59,North,0,0.0,0.0,40,0.00,,---,0.08,VWS V14.00,2013-11-08 12:32:00,
2013-11-08 04:37:00,45.1,22.3,29.59,North,0,0.0,0.0,40,0.00,,---,0.08,VWS V14.00,2013-11-08 12:37:00,
2013-11-08 04:42:00,45.1,22.3,29.59,North,0,0.0,0.0,40,0.00,,---,0.08,VWS V14.00,2013-11-08 12:42:00,
2013-11-08 04:47:00,45.1,22.3,29.62,North,0,0.0,0.0,40,0.00,,---,0.08,VWS V14.00,2013-11-08 12:47:00,
2013-11-08 04:52:00,45.1,22.3,29.62,North,0,0.0,0.0,40,0.00,,---,0.08,VWS V14.00,2013-11-08 12:52:00,
2013-11-08 04:58:00,45.0,21.5,29.62,North,0,0.0,0.0,39,0.00,,---,0.08,VWS V14.00,2013-11-08 12:58:00,
2013-11-08 05:03:00,44.8,21.4,29.62,North,0,0.0,0.0,39,0.00,,---,0.08,VWS V14.00,2013-11-08 13:03:00,
2013-11-08 05:08:00,44.4,21.0,29.62,North,0,0.0,0.0,39,0.00,,---,0.08,VWS V14.00,2013-11-08 13:08:00,
2013-11-08 05:13:00,44.1,20.7,29.62,North,0,0.0,0.0,39,0.00,,---,0.08,VWS V14.00,2013-11-08 13:13:00,
2013-11-08 05:18:00,43.7,20.4,29.62,North,0,0.0,0.0,39,0.00,,---,0.08,VWS V14.00,2013-11-08 13:18:00,
2013-11-08 05:23:00,43.3,20.1,29.62,North,0,0.0,0.0,39,0.00,,---,0.08,VWS V14.00,2013-11-08 13:23:00,
2013-11-08 05:28:00,43.0,19.7,29.62,North,0,0.0,0.0,39,0.00,,---,0.08,VWS V14.00,2013-11-08 13:28:00,
2013-11-08 05:33:00,42.8,19.6,29.62,North,0,0.0,0.0,39,0.00,,---,0.08,VWS V14.00,2013-11-08 13:33:00,
2013-11-08 05:38:00,42.6,19.4,29.62,North,0,0.0,0.0,39,0.00,,---,0.08,VWS V14.00,2013-11-08 13:38:00,
2013-11-08 05:43:00,42.4,19.2,29.62,North,0,0.0,0.0,39,0.00,,---,0.08,VWS V14.00,2013-11-08 13:43:00,
2013-11-08 05:48:00,42.6,20.0,29.65,North,0,0.0,0.0,40,0.00,,---,0.08,VWS V14.00,2013-11-08 13:48:00,
2013-11-08 05:53:00,42.6,20.0,29.65,North,0,0.0,0.0,40,0.00,,---,0.08,VWS V14.00,2013-11-08 13:53:00,
2013-11-08 05:58:00,42.4,19.8,29.65,North,0,0.0,0.0,40,0.00,,---,0.08,VWS V14.00,2013-11-08 13:58:00,
2013-11-08 06:03:00,42.3,19.7,29.65,North,0,0.0,0.0,40,0.00,,---,0.08,VWS V14.00,2013-11-08 14:03:00,
2013-11-08 06:08:00,42.1,19.5,29.65,North,0,0.0,0.0,40,0.00,,---,0.08,VWS V14.00,2013-11-08 14:08:00,
2013-11-08 06:13:00,42.1,18.9,29.65,North,0,0.0,0.0,39,0.00,,---,0.08,VWS V14.00,2013-11-08 14:13:00,
2013-11-08 06:18:00,41.9,18.8,29.65,North,0,0.0,0.0,39,0.00,,---,0.08,VWS V14.00,2013-11-08 14:18:00,
2013-11-08 06:23:00,41.7,18.6,29.65,North,0,0.0,0.0,39,0.00,,---,0.08,VWS V14.00,2013-11-08 14:23:00,
2013-11-08 06:28:00,41.7,19.2,29.65,North,0,0.0,0.0,40,0.00,,---,0.08,VWS V14.00,2013-11-08 14:28:00,
2013-11-08 06:33:00,41.5,19.0,29.65,North,0,0.0,0.0,40,0.00,,---,0.08,VWS V14.00,2013-11-08 14:33:00,
2013-11-08 06:38:00,41.5,19.0,29.65,North,0,0.0,0.0,40,0.00,,---,0.08,VWS V14.00,2013-11-08 14:38:00,
2013-11-08 06:43:00,41.4,18.3,29.65,North,0,0.0,0.0,39,0.00,,---,0.08,VWS V14.00,2013-11-08 14:43:00,
2013-11-08 06:49:00,41.2,18.7,29.65,North,0,0.0,0.0,40,0.00,,---,0.08,VWS V14.00,2013-11-08 14:49:00,
2013-11-08 06:54:00,41.2,18.7,29.65,North,0,0.0,0.0,40,0.00,,---,0.08,VWS V14.00,2013-11-08 14:54:00,
2013-11-08 06:59:00,41.2,18.7,29.65,North,0,0.0,0.0,40,0.00,,---,0.08,VWS V14.00,2013-11-08 14:59:00,
2013-11-08 07:04:00,41.2,18.7,29.65,North,0,0.0,0.0,40,0.00,,---,0.08,VWS V14.00,2013-11-08 15:04:00,
2013-11-08 07:09:00,41.2,18.7,29.65,North,0,0.0,0.0,40,0.00,,---,0.08,VWS V14.00,2013-11-08 15:09:00,
2013-11-08 07:14:00,41.0,18.5,29.65,North,0,0.0,0.0,40,0.00,,---,0.08,VWS V14.00,2013-11-08 15:14:00,
2013-11-08 07:19:00,41.0,18.5,29.68,North,0,0.0,0.0,40,0.00,,---,0.08,VWS V14.00,2013-11-08 15:19:00,
2013-11-08 07:24:00,41.2,18.7,29.68,North,0,0.0,0.0,40,0.00,,---,0.08,VWS V14.00,2013-11-08 15:24:00,
2013-11-08 07:29:00,41.2,18.7,29.68,North,0,0.0,0.0,40,0.00,,---,0.08,VWS V14.00,2013-11-08 15:29:00,
2013-11-08 07:34:00,41.2,18.7,29.68,North,0,0.0,0.0,40,0.00,,---,0.08,VWS V14.00,2013-11-08 15:34:00,
2013-11-08 07:39:00,41.2,18.7,29.68,North,0,0.0,0.0,40,0.00,,---,0.08,VWS V14.00,2013-11-08 15:39:00,
2013-11-08 07:44:00,41.2,18.7,29.68,North,0,0.0,0.0,40,0.00,,---,0.08,VWS V14.00,2013-11-08 15:44:00,
2013-11-08 07:49:00,41.2,18.7,29.68,North,0,0.0,0.0,40,0.00,,---,0.08,VWS V14.00,2013-11-08 15:49:00,
2013-11-08 07:54:00,41.0,18.5,29.68,North,0,0.0,0.0,40,0.00,,---,0.08,VWS V14.00,2013-11-08 15:54:00,
2013-11-08 08:00:00,41.2,18.7,29.68,North,0,0.0,0.0,40,0.00,,---,0.08,VWS V14.00,2013-11-08 16:00:00,
2013-11-08 08:05:00,41.2,18.7,29.68,North,0,0.0,0.0,40,0.00,,---,0.08,VWS V14.00,2013-11-08 16:05:00,
2013-11-08 08:10:00,41.2,18.7,29.68,North,0,0.0,0.0,40,0.00,,---,0.08,VWS V14.00,2013-11-08 16:10:00,
2013-11-08 08:15:00,41.0,18.5,29.68,North,0,0.0,0.0,40,0.00,,---,0.08,VWS V14.00,2013-11-08 16:15:00,
2013-11-08 08:20:00,41.0,18.5,29.71,North,0,0.0,0.0,40,0.00,,---,0.08,VWS V14.00,2013-11-08 16:20:00,
2013-11-08 08:25:00,40.8,18.4,29.71,North,0,0.0,0.0,40,0.00,,---,0.08,VWS V14.00,2013-11-08 16:25:00,
2013-11-08 08:30:00,40.8,18.4,29.71,North,0,0.0,0.0,40,0.00,,---,0.08,VWS V14.00,2013-11-08 16:30:00,
2013-11-08 08:35:00,40.8,18.4,29.71,North,0,0.0,0.0,40,0.00,,---,0.08,VWS V14.00,2013-11-08 16:35:00,
2013-11-08 08:40:00,40.6,18.2,29.71,North,0,0.0,0.0,40,0.00,,---,0.08,VWS V14.00,2013-11-08 16:40:00,
2013-11-08 08:45:00,40.8,19.0,29.71,North,0,0.0,0.0,41,0.00,,---,0.08,VWS V14.00,2013-11-08 16:45:00,
2013-11-08 08:50:00,41.2,18.7,29.71,North,0,0.0,0.0,40,0.00,,---,0.08,VWS V14.00,2013-11-08 16:50:00,
2013-11-08 08:55:00,41.5,19.6,29.71,North,0,0.0,0.0,41,0.00,,---,0.08,VWS V14.00,2013-11-08 16:55:00,
2013-11-08 09:00:00,41.9,19.9,29.71,North,0,0.0,0.0,41,0.00,,---,0.08,VWS V14.00,2013-11-08 17:00:00,
2013-11-08 09:05:00,42.3,20.8,29.71,North,0,0.0,0.0,42,0.00,,---,0.08,VWS V14.00,2013-11-08 17:05:00,
2013-11-08 09:10:00,42.4,21.0,29.71,North,0,0.0,0.0,42,0.00,,---,0.08,VWS V14.00,2013-11-08 17:10:00,
2013-11-08 09:15:00,42.8,21.9,29.71,North,0,0.0,0.0,43,0.00,,---,0.08,VWS V14.00,2013-11-08 17:15:00,
2013-11-08 09:20:00,43.3,22.9,29.71,North,0,0.0,0.0,44,0.00,,---,0.08,VWS V14.00,2013-11-08 17:20:00,
2013-11-08 09:25:00,43.5,23.1,29.71,North,0,0.0,0.0,44,0.00,,---,0.08,VWS V14.00,2013-11-08 17:25:00,
2013-11-08 09:30:00,43.7,23.8,29.71,North,0,0.0,0.0,45,0.00,,---,0.08,VWS V14.00,2013-11-08 17:30:00,
2013-11-08 09:35:00,43.9,23.4,29.71,North,0,0.0,0.0,44,0.00,,---,0.08,VWS V14.00,2013-11-08 17:35:00,
2013-11-08 09:40:00,43.9,22.9,29.71,North,0,0.0,0.0,43,0.00,,---,0.08,VWS V14.00,2013-11-08 17:40:00,
2013-11-08 09:45:00,44.1,23.0,29.71,North,0,0.0,0.0,43,0.00,,---,0.08,VWS V14.00,2013-11-08 17:45:00,
2013-11-08 09:51:00,44.4,24.4,29.71,North,0,0.0,0.0,45,0.00,,---,0.08,VWS V14.00,2013-11-08 17:51:00,
2013-11-08 09:56:00,44.6,24.6,29.71,North,0,0.0,0.0,45,0.00,,---,0.08,VWS V14.00,2013-11-08 17:56:00,
2013-11-08 10:01:00,44.4,23.9,29.71,North,0,0.0,0.0,44,0.00,,---,0.08,VWS V14.00,2013-11-08 18:01:00,
2013-11-08 10:06:00,44.4,23.3,29.74,North,0,0.0,0.0,43,0.00,,---,0.08,VWS V14.00,2013-11-08 18:06:00,
2013-11-08 10:11:00,44.6,23.5,29.74,North,0,0.0,0.0,43,0.00,,---,0.08,VWS V14.00,2013-11-08 18:11:00,
2013-11-08 10:16:00,44.8,23.7,29.74,North,0,0.0,0.0,43,0.00,,---,0.08,VWS V14.00,2013-11-08 18:16:00,
2013-11-08 10:21:00,44.8,23.7,29.74,North,0,0.0,0.0,43,0.00,,---,0.08,VWS V14.00,2013-11-08 18:21:00,
2013-11-08 10:26:00,44.8,23.1,29.74,North,0,0.0,0.0,42,0.00,,---,0.08,VWS V14.00,2013-11-08 18:26:00,
2013-11-08 10:31:00,44.8,23.1,29.74,North,0,0.0,0.0,42,0.00,,---,0.08,VWS V14.00,2013-11-08 18:31:00,
2013-11-08 10:36:00,44.8,22.5,29.74,North,0,0.0,0.0,41,0.00,,---,0.08,VWS V14.00,2013-11-08 18:36:00,
2013-11-08 10:41:00,45.0,22.7,29.74,North,0,0.0,0.0,41,0.00,,---,0.08,VWS V14.00,2013-11-08 18:41:00,
2013-11-08 10:46:00,45.1,23.4,29.74,North,0,0.0,0.0,42,0.00,,---,0.08,VWS V14.00,2013-11-08 18:46:00,
2013-11-08 10:51:00,45.5,24.9,29.74,North,0,0.0,0.0,44,0.00,,---,0.08,VWS V14.00,2013-11-08 18:51:00,
2013-11-08 10:56:00,45.9,25.2,29.74,North,0,0.0,0.0,44,0.00,,---,0.08,VWS V14.00,2013-11-08 18:56:00,
2013-11-08 11:01:00,45.9,25.2,29.74,North,0,0.0,0.0,44,0.00,,---,0.08,VWS V14.00,2013-11-08 19:01:00,
2013-11-08 11:06:00,45.9,24.6,29.74,North,0,0.0,0.0,43,0.00,,---,0.08,VWS V14.00,2013-11-08 19:06:00,
2013-11-08 11:11:00,45.9,24.1,29.74,North,0,0.0,0.0,42,0.00,,---,0.08,VWS V14.00,2013-11-08 19:11:00,
2013-11-08 11:16:00,46.0,24.2,29.74,North,0,0.0,0.0,42,0.00,,---,0.08,VWS V14.00,2013-11-08 19:16:00,
2013-11-08 11:21:00,46.0,24.2,29.74,North,0,0.0,0.0,42,0.00,,---,0.08,VWS V14.00,2013-11-08 19:21:00,
2013-11-08 11:26:00,46.4,25.1,29.74,North,0,0.0,0.0,43,0.00,,---,0.08,VWS V14.00,2013-11-08 19:26:00,
2013-11-08 11:32:00,46.8,26.0,29.74,North,0,0.0,0.0,44,0.00,,---,0.08,VWS V14.00,2013-11-08 19:32:00,
2013-11-08 11:37:00,46.9,26.2,29.74,North,0,0.0,0.0,44,0.00,,---,0.08,VWS V14.00,2013-11-08 19:37:00,
2013-11-08 11:42:00,46.9,25.6,29.74,North,0,0.0,0.0,43,0.00,,---,0.08,VWS V14.00,2013-11-08 19:42:00,
2013-11-08 11:47:00,47.1,25.2,29.74,North,0,0.0,0.0,42,0.00,,---,0.08,VWS V14.00,2013-11-08 19:47:00,
2013-11-08 11:52:00,47.3,26.0,29.74,North,0,0.0,0.0,43,0.00,,---,0.08,VWS V14.00,2013-11-08 19:52:00,
2013-11-08 11:57:00,47.7,26.8,29.74,North,0,0.0,0.0,44,0.00,,---,0.08,VWS V14.00,2013-11-08 19:57:00,
2013-11-08 12:02:00,47.8,27.0,29.74,North,0,0.0,0.0,44,0.00,,---,0.08,VWS V14.00,2013-11-08 20:02:00,
2013-11-08 12:07:00,47.8,26.4,29.74,North,0,0.0,0.0,43,0.00,,---,0.08,VWS V14.00,2013-11-08 20:07:00,
2013-11-08 12:12:00,47.7,25.7,29.74,North,0,0.0,0.0,42,0.00,,---,0.08,VWS V14.00,2013-11-08 20:12:00,
2013-11-08 12:17:00,47.7,25.1,29.74,North,0,0.0,0.0,41,0.00,,---,0.08,VWS V14.00,2013-11-08 20:17:00,
2013-11-08 12:22:00,47.7,25.1,29.74,North,0,0.0,0.0,41,0.00,,---,0.08,VWS V14.00,2013-11-08 20:22:00,
2013-11-08 12:27:00,47.7,25.1,29.74,North,0,0.0,0.0,41,0.00,,---,0.08,VWS V14.00,2013-11-08 20:27:00,
2013-11-08 12:32:00,47.5,25.0,29.74,North,0,0.0,0.0,41,0.00,,---,0.08,VWS V14.00,2013-11-08 20:32:00,
2013-11-08 12:37:00,47.7,25.1,29.74,North,0,0.0,0.0,41,0.00,,---,0.08,VWS V14.00,2013-11-08 20:37:00,
2013-11-08 12:42:00,47.7,25.1,29.74,North,0,0.0,0.0,41,0.00,,---,0.08,VWS V14.00,2013-11-08 20:42:00,
2013-11-08 12:47:00,47.8,25.9,29.74,North,0,0.0,0.0,42,0.00,,---,0.08,VWS V14.00,2013-11-08 20:47:00,
2013-11-08 12:52:00,48.0,26.0,29.71,North,0,0.0,0.0,42,0.00,,---,0.08,VWS V14.00,2013-11-08 20:52:00,
2013-11-08 12:57:00,48.0,26.0,29.71,North,0,0.0,0.0,42,0.00,,---,0.08,VWS V14.00,2013-11-08 20:57:00,
2013-11-08 13:02:00,48.0,26.0,29.74,North,0,0.0,0.0,42,0.00,,---,0.08,VWS V14.00,2013-11-08 21:02:00,
2013-11-08 13:07:00,48.0,26.0,29.74,North,0,0.0,0.0,42,0.00,,---,0.08,VWS V14.00,2013-11-08 21:07:00,
2013-11-08 13:12:00,48.0,26.0,29.74,North,0,0.0,0.0,42,0.00,,---,0.08,VWS V14.00,2013-11-08 21:12:00,
2013-11-08 13:17:00,48.2,25.6,29.74,North,0,0.0,0.0,41,0.00,,---,0.08,VWS V14.00,2013-11-08 21:17:00,
2013-11-08 13:23:00,48.2,25.6,29.74,North,0,0.0,0.0,41,0.00,,---,0.08,VWS V14.00,2013-11-08 21:23:00,
2013-11-08 13:28:00,48.0,25.5,29.74,North,0,0.0,0.0,41,0.00,,---,0.08,VWS V14.00,2013-11-08 21:28:00,
2013-11-08 13:33:00,47.5,24.4,29.74,North,0,0.0,0.0,40,0.00,,---,0.08,VWS V14.00,2013-11-08 21:33:00,
2013-11-08 13:38:00,47.1,24.1,29.74,North,0,0.0,0.0,40,0.00,,---,0.08,VWS V14.00,2013-11-08 21:38:00,
2013-11-08 13:43:00,46.9,23.3,29.74,North,0,0.0,0.0,39,0.00,,---,0.08,VWS V14.00,2013-11-08 21:43:00,
2013-11-08 13:48:00,46.9,23.3,29.74,North,0,0.0,0.0,39,0.00,,---,0.08,VWS V14.00,2013-11-08 21:48:00,
2013-11-08 13:53:00,46.9,23.9,29.74,North,0,0.0,0.0,40,0.00,,---,0.08,VWS V14.00,2013-11-08 21:53:00,
2013-11-08 13:58:00,47.1,24.1,29.74,North,0,0.0,0.0,40,0.00,,---,0.08,VWS V14.00,2013-11-08 21:58:00,
2013-11-08 14:03:00,47.3,24.8,29.74,North,0,0.0,0.0,41,0.00,,---,0.08,VWS V14.00,2013-11-08 22:03:00,
2013-11-08 14:08:00,47.5,25.0,29.74,North,0,0.0,0.0,41,0.00,,---,0.08,VWS V14.00,2013-11-08 22:08:00,
2013-11-08 14:13:00,47.7,25.7,29.74,North,0,0.0,0.0,42,0.00,,---,0.08,VWS V14.00,2013-11-08 22:13:00,
2013-11-08 14:18:00,47.8,25.9,29.74,North,0,0.0,0.0,42,0.00,,---,0.08,VWS V14.00,2013-11-08 22:18:00,
2013-11-08 14:23:00,48.0,26.0,29.74,North,0,0.0,0.0,42,0.00,,---,0.08,VWS V14.00,2013-11-08 22:23:00,
2013-11-08 14:28:00,48.0,26.0,29.74,North,0,0.0,0.0,42,0.00,,---,0.08,VWS V14.00,2013-11-08 22:28:00,
2013-11-08 14:33:00,48.2,25.6,29.74,North,0,0.0,0.0,41,0.00,,---,0.08,VWS V14.00,2013-11-08 22:33:00,
2013-11-08 14:38:00,48.0,25.5,29.74,North,0,0.0,0.0,41,0.00,,---,0.08,VWS V14.00,2013-11-08 22:38:00,
2013-11-08 14:44:00,48.0,25.5,29.74,North,0,0.0,0.0,41,0.00,,---,0.08,VWS V14.00,2013-11-08 22:44:00,
2013-11-08 14:49:00,48.0,25.5,29.74,North,0,0.0,0.0,41,0.00,,---,0.08,VWS V14.00,2013-11-08 22:49:00,
2013-11-08 14:54:00,47.8,25.3,29.74,North,0,0.0,0.0,41,0.00,,---,0.08,VWS V14.00,2013-11-08 22:54:00,
2013-11-08 14:59:00,47.7,24.5,29.74,North,0,0.0,0.0,40,0.00,,---,0.08,VWS V14.00,2013-11-08 22:59:00,
2013-11-08 15:04:00,47.5,24.4,29.74,North,0,0.0,0.0,40,0.00,,---,0.08,VWS V14.00,2013-11-08 23:04:00,
2013-11-08 15:09:00,47.3,24.2,29.74,North,0,0.0,0.0,40,0.00,,---,0.08,VWS V14.00,2013-11-08 23:09:00,
2013-11-08 15:14:00,47.3,23.6,29.74,North,0,0.0,0.0,39,0.00,,---,0.08,VWS V14.00,2013-11-08 23:14:00,
2013-11-08 15:19:00,47.1,23.5,29.74,North,0,0.0,0.0,39,0.00,,---,0.08,VWS V14.00,2013-11-08 23:19:00,
2013-11-08 15:24:00,46.9,23.3,29.74,North,0,0.0,0.0,39,0.00,,---,0.08,VWS V14.00,2013-11-08 23:24:00,
2013-11-08 15:29:00,46.9,23.3,29.74,North,0,0.0,0.0,39,0.00,,---,0.08,VWS V14.00,2013-11-08 23:29:00,
2013-11-08 15:34:00,46.9,23.9,29.74,North,0,0.0,0.0,40,0.00,,---,0.08,VWS V14.00,2013-11-08 23:34:00,
2013-11-08 15:39:00,46.9,23.9,29.74,North,0,0.0,0.0,40,0.00,,---,0.08,VWS V14.00,2013-11-08 23:39:00,
2013-11-08 15:44:00,46.8,23.7,29.74,North,0,0.0,0.0,40,0.00,,---,0.08,VWS V14.00,2013-11-08 23:44:00,
2013-11-08 15:49:00,46.8,23.7,29.74,North,0,0.0,0.0,40,0.00,,---,0.08,VWS V14.00,2013-11-08 23:49:00,
2013-11-08 15:54:00,46.4,22.8,29.74,North,0,0.0,0.0,39,0.00,,---,0.08,VWS V14.00,2013-11-08 23:54:00,
2013-11-08 15:59:00,46.2,22.6,29.74,North,0,0.0,0.0,39,0.00,,---,0.08,VWS V14.00,2013-11-08 23:59:00,
2013-11-08 16:04:00,45.9,22.3,29.74,North,0,0.0,0.0,39,0.00,,---,0.08,VWS V14.00,2013-11-09 00:04:00,
2013-11-08 16:09:00,45.7,22.2,29.74,North,0,0.0,0.0,39,0.00,,---,0.08,VWS V14.00,2013-11-09 00:09:00,
2013-11-08 16:15:00,45.5,22.0,29.74,North,0,0.0,0.0,39,0.00,,---,0.08,VWS V14.00,2013-11-09 00:15:00,
2013-11-08 16:20:00,45.3,21.8,29.74,North,0,0.0,0.0,39,0.00,,---,0.08,VWS V14.00,2013-11-09 00:20:00,
2013-11-08 16:25:00,45.1,21.7,29.74,North,0,0.0,0.0,39,0.00,,---,0.08,VWS V14.00,2013-11-09 00:25:00,
2013-11-08 16:30:00,44.8,21.4,29.74,North,0,0.0,0.0,39,0.00,,---,0.08,VWS V14.00,2013-11-09 00:30:00,
2013-11-08 16:35:00,44.6,21.2,29.74,North,0,0.0,0.0,39,0.00,,---,0.08,VWS V14.00,2013-11-09 00:35:00,
2013-11-08 16:40:00,44.6,21.2,29.74,North,0,0.0,0.0,39,0.00,,---,0.08,VWS V14.00,2013-11-09 00:40:00,
2013-11-08 16:45:00,44.2,20.9,29.74,North,0,0.0,0.0,39,0.00,,---,0.08,VWS V14.00,2013-11-09 00:45:00,
2013-11-08 16:50:00,44.1,20.7,29.74,North,0,0.0,0.0,39,0.00,,---,0.08,VWS V14.00,2013-11-09 00:50:00,
2013-11-08 16:55:00,43.7,20.4,29.74,North,0,0.0,0.0,39,0.00,,---,0.08,VWS V14.00,2013-11-09 00:55:00,
2013-11-08 17:00:00,43.7,20.4,29.74,North,0,0.0,0.0,39,0.00,,---,0.08,VWS V14.00,2013-11-09 01:00:00,
2013-11-08 17:05:00,43.5,20.2,29.74,North,0,0.0,0.0,39,0.00,,---,0.08,VWS V14.00,2013-11-09 01:05:00,
2013-11-08 17:10:00,43.3,20.1,29.74,North,0,0.0,0.0,39,0.00,,---,0.08,VWS V14.00,2013-11-09 01:10:00,
2013-11-08 17:15:00,43.3,20.1,29.74,North,0,0.0,0.0,39,0.00,,---,0.08,VWS V14.00,2013-11-09 01:15:00,
2013-11-08 17:20:00,43.2,20.5,29.74,North,0,0.0,0.0,40,0.00,,---,0.08,VWS V14.00,2013-11-09 01:20:00,
2013-11-08 17:25:00,43.3,20.6,29.74,North,0,0.0,0.0,40,0.00,,---,0.08,VWS V14.00,2013-11-09 01:25:00,
2013-11-08 17:30:00,43.3,20.6,29.74,North,0,0.0,0.0,40,0.00,,---,0.08,VWS V14.00,2013-11-09 01:30:00,
2013-11-08 17:35:00,43.2,20.5,29.74,North,0,0.0,0.0,40,0.00,,---,0.08,VWS V14.00,2013-11-09 01:35:00,
2013-11-08 17:40:00,43.3,20.6,29.74,North,0,0.0,0.0,40,0.00,,---,0.08,VWS V14.00,2013-11-09 01:40:00,
2013-11-08 17:45:00,43.3,20.6,29.74,North,0,0.0,0.0,40,0.00,,---,0.08,VWS V14.00,2013-11-09 01:45:00,
2013-11-08 17:51:00,43.3,21.2,29.74,North,0,0.0,0.0,41,0.00,,---,0.08,VWS V14.00,2013-11-09 01:51:00,
2013-11-08 17:56:00,43.3,21.2,29.74,North,0,0.0,0.0,41,0.00,,---,0.08,VWS V14.00,2013-11-09 01:56:00,
2013-11-08 18:01:00,43.3,21.2,29.74,North,0,0.0,0.0,41,0.00,,---,0.08,VWS V14.00,2013-11-09 02:01:00,
2013-11-08 18:06:00,43.2,21.1,29.74,North,0,0.0,0.0,41,0.00,,---,0.08,VWS V14.00,2013-11-09 02:06:00,
2013-11-08 18:11:00,43.2,20.5,29.74,North,0,0.0,0.0,40,0.00,,---,0.08,VWS V14.00,2013-11-09 02:11:00,
2013-11-08 18:16:00,43.0,20.3,29.74,North,0,0.0,0.0,40,0.00,,---,0.08,VWS V14.00,2013-11-09 02:16:00,
2013-11-08 18:21:00,43.0,20.3,29.74,North,0,0.0,0.0,40,0.00,,---,0.08,VWS V14.00,2013-11-09 02:21:00,
2013-11-08 18:26:00,43.0,20.9,29.74,North,0,0.0,0.0,41,0.00,,---,0.08,VWS V14.00,2013-11-09 02:26:00,
2013-11-08 18:31:00,43.2,21.1,29.74,North,0,0.0,0.0,41,0.00,,---,0.08,VWS V14.00,2013-11-09 02:31:00,
2013-11-08 18:36:00,43.3,21.2,29.77,North,0,0.0,0.0,41,0.00,,---,0.08,VWS V14.00,2013-11-09 02:36:00,
2013-11-08 18:41:00,43.3,21.2,29.77,North,0,0.0,0.0,41,0.00,,---,0.08,VWS V14.00,2013-11-09 02:41:00,
2013-11-08 18:46:00,43.3,21.2,29.77,North,0,0.0,0.0,41,0.00,,---,0.08,VWS V14.00,2013-11-09 02:46:00,
2013-11-08 18:51:00,43.3,21.2,29.74,North,0,0.0,0.0,41,0.00,,---,0.08,VWS V14.00,2013-11-09 02:51:00,
2013-11-08 18:56:00,43.3,21.2,29.74,North,0,0.0,0.0,41,0.00,,---,0.08,VWS V14.00,2013-11-09 02:56:00,
2013-11-08 19:01:00,43.3,21.2,29.74,North,0,0.0,0.0,41,0.00,,---,0.08,VWS V14.00,2013-11-09 03:01:00,
2013-11-08 19:06:00,43.3,21.2,29.77,North,0,0.0,0.0,41,0.00,,---,0.08,VWS V14.00,2013-11-09 03:06:00,
2013-11-08 19:11:00,43.3,21.2,29.77,North,0,0.0,0.0,41,0.00,,---,0.08,VWS V14.00,2013-11-09 03:11:00,
2013-11-08 19:16:00,43.5,22.0,29.77,North,0,0.0,0.0,42,0.00,,---,0.08,VWS V14.00,2013-11-09 03:16:00,
2013-11-08 19:21:00,43.5,22.0,29.77,North,0,0.0,0.0,42,0.00,,---,0.08,VWS V14.00,2013-11-09 03:21:00,
2013-11-08 19:26:00,43.5,22.0,29.77,North,0,0.0,0.0,42,0.00,,---,0.08,VWS V14.00,2013-11-09 03:26:00,
2013-11-08 19:31:00,43.5,22.0,29.77,North,0,0.0,0.0,42,0.00,,---,0.08,VWS V14.00,2013-11-09 03:31:00,
2013-11-08 19:36:00,43.5,22.0,29.77,North,0,0.0,0.0,42,0.00,,---,0.08,VWS V14.00,2013-11-09 03:36:00,
2013-11-08 19:41:00,43.5,22.0,29.77,North,0,0.0,0.0,42,0.00,,---,0.08,VWS V14.00,2013-11-09 03:41:00,
2013-11-08 19:47:00,43.5,22.0,29.77,North,0,0.0,0.0,42,0.00,,---,0.08,VWS V14.00,2013-11-09 03:47:00,
2013-11-08 19:52:00,43.5,22.0,29.77,North,0,0.0,0.0,42,0.00,,---,0.08,VWS V14.00,2013-11-09 03:52:00,
2013-11-08 19:57:00,43.3,21.8,29.77,North,0,0.0,0.0,42,0.00,,---,0.08,VWS V14.00,2013-11-09 03:57:00,
2013-11-08 20:02:00,43.3,21.2,29.77,North,0,0.0,0.0,41,0.00,,---,0.08,VWS V14.00,2013-11-09 04:02:00,
2013-11-08 20:07:00,43.3,21.2,29.77,North,0,0.0,0.0,41,0.00,,---,0.08,VWS V14.00,2013-11-09 04:07:00,
2013-11-08 20:12:00,43.3,21.2,29.77,North,0,0.0,0.0,41,0.00,,---,0.08,VWS V14.00,2013-11-09 04:12:00,
2013-11-08 20:17:00,43.3,21.8,29.77,North,0,0.0,0.0,42,0.00,,---,0.08,VWS V14.00,2013-11-09 04:17:00,
2013-11-08 20:22:00,43.5,22.0,29.77,North,0,0.0,0.0,42,0.00,,---,0.08,VWS V14.00,2013-11-09 04:22:00,
2013-11-08 20:27:00,43.5,22.0,29.77,North,0,0.0,0.0,42,0.00,,---,0.08,VWS V14.00,2013-11-09 04:27:00,
2013-11-08 20:32:00,43.5,22.0,29.77,North,0,0.0,0.0,42,0.00,,---,0.08,VWS V14.00,2013-11-09 04:32:00,
2013-11-08 20:37:00,43.7,22.1,29.77,North,0,0.0,0.0,42,0.00,,---,0.08,VWS V14.00,2013-11-09 04:37:00,
2013-11-08 20:42:00,43.7,22.1,29.77,North,0,0.0,0.0,42,0.00,,---,0.08,VWS V14.00,2013-11-09 04:42:00,
2013-11-08 20:47:00,43.5,22.0,29.77,North,0,0.0,0.0,42,0.00,,---,0.08,VWS V14.00,2013-11-09 04:47:00,
2013-11-08 20:52:00,43.5,22.0,29.77,North,0,0.0,0.0,42,0.00,,---,0.08,VWS V14.00,2013-11-09 04:52:00,
2013-11-08 20:57:00,43.5,22.0,29.77,North,0,0.0,0.0,42,0.00,,---,0.08,VWS V14.00,2013-11-09 04:57:00,
2013-11-08 21:01:00,43.5,22.0,29.77,North,0,0.0,0.0,42,0.00,,---,0.08,VWS V14.00,2013-11-09 05:01:00,
2013-11-08 21:02:00,43.5,22.0,29.77,North,0,0.0,0.0,42,0.00,,---,0.08,VWS V14.00,2013-11-09 05:02:00,
2013-11-08 21:04:00,43.5,22.0,29.77,North,0,0.0,0.0,42,0.00,,---,0.08,VWS V14.00,2013-11-09 05:04:00,
2013-11-08 21:09:00,43.5,22.0,29.77,North,0,0.0,0.0,42,0.00,,---,0.08,VWS V14.00,2013-11-09 05:09:00,
2013-11-08 21:14:00,43.5,22.0,29.77,North,0,0.0,0.0,42,0.00,,---,0.08,VWS V14.00,2013-11-09 05:14:00,
2013-11-08 21:19:00,43.7,22.1,29.77,North,0,0.0,0.0,42,0.00,,---,0.08,VWS V14.00,2013-11-09 05:19:00,
2013-11-08 21:24:00,43.7,22.1,29.77,North,0,0.0,0.0,42,0.00,,---,0.08,VWS V14.00,2013-11-09 05:24:00,
2013-11-08 21:29:00,43.7,22.7,29.77,North,0,0.0,0.0,43,0.00,,---,0.08,VWS V14.00,2013-11-09 05:29:00,
2013-11-08 21:34:00,43.9,22.9,29.77,North,0,0.0,0.0,43,0.00,,---,0.08,VWS V14.00,2013-11-09 05:34:00,
2013-11-08 21:39:00,43.9,22.9,29.77,North,0,0.0,0.0,43,0.00,,---,0.08,VWS V14.00,2013-11-09 05:39:00,
2013-11-08 21:44:00,43.9,22.9,29.77,North,0,0.0,0.0,43,0.00,,---,0.08,VWS V14.00,2013-11-09 05:44:00,
2013-11-08 21:49:00,43.9,22.9,29.77,North,0,0.0,0.0,43,0.00,,---,0.08,VWS V14.00,2013-11-09 05:49:00,
2013-11-08 21:54:00,44.1,23.0,29.77,North,0,0.0,0.0,43,0.00,,---,0.08,VWS V14.00,2013-11-09 05:54:00,
2013-11-08 21:59:00,44.1,23.0,29.77,North,0,0.0,0.0,43,0.00,,---,0.08,VWS V14.00,2013-11-09 05:59:00,
2013-11-08 22:04:00,44.1,23.0,29.80,North,0,0.0,0.0,43,0.00,,---,0.08,VWS V14.00,2013-11-09 06:04:00,
2013-11-08 22:09:00,44.1,23.0,29.80,North,0,0.0,0.0,43,0.00,,---,0.08,VWS V14.00,2013-11-09 06:09:00,
2013-11-08 22:14:00,44.1,23.0,29.80,North,0,0.0,0.0,43,0.00,,---,0.08,VWS V14.00,2013-11-09 06:14:00,
2013-11-08 22:19:00,44.1,23.0,29.80,North,0,0.0,0.0,43,0.00,,---,0.08,VWS V14.00,2013-11-09 06:19:00,
2013-11-08 22:24:00,44.1,23.0,29.80,North,0,0.0,0.0,43,0.00,,---,0.08,VWS V14.00,2013-11-09 06:24:00,
2013-11-08 22:30:00,44.1,23.0,29.80,North,0,0.0,0.0,43,0.00,,---,0.08,VWS V14.00,2013-11-09 06:30:00,
2013-11-08 22:35:00,44.1,23.0,29.77,North,0,0.0,0.0,43,0.00,,---,0.08,VWS V14.00,2013-11-09 06:35:00,
2013-11-08 22:40:00,44.1,23.0,29.77,North,0,0.0,0.0,43,0.00,,---,0.08,VWS V14.00,2013-11-09 06:40:00,
2013-11-08 22:45:00,44.1,23.0,29.77,North,0,0.0,0.0,43,0.00,,---,0.08,VWS V14.00,2013-11-09 06:45:00,
2013-11-08 22:50:00,44.1,23.0,29.77,North,0,0.0,0.0,43,0.00,,---,0.08,VWS V14.00,2013-11-09 06:50:00,
2013-11-08 22:55:00,44.1,23.0,29.77,North,0,0.0,0.0,43,0.00,,---,0.08,VWS V14.00,2013-11-09 06:55:00,
2013-11-08 23:00:00,44.1,23.0,29.77,North,0,0.0,0.0,43,0.00,,---,0.08,VWS V14.00,2013-11-09 07:00:00,
2013-11-08 23:05:00,44.1,23.0,29.77,North,0,0.0,0.0,43,0.00,,---,0.08,VWS V14.00,2013-11-09 07:05:00,
2013-11-08 23:10:00,44.1,23.0,29.77,North,0,0.0,0.0,43,0.00,,---,0.08,VWS V14.00,2013-11-09 07:10:00,
2013-11-08 23:15:00,44.1,23.0,29.77,North,0,0.0,0.0,43,0.00,,---,0.08,VWS V14.00,2013-11-09 07:15:00,
2013-11-08 23:20:00,44.1,23.0,29.77,North,0,0.0,0.0,43,0.00,,---,0.08,VWS V14.00,2013-11-09 07:20:00,
2013-11-08 23:25:00,44.1,23.0,29.77,North,0,0.0,0.0,43,0.00,,---,0.08,VWS V14.00,2013-11-09 07:25:00,
2013-11-08 23:30:00,44.1,23.0,29.77,North,0,0.0,0.0,43,0.00,,---,0.08,VWS V14.00,2013-11-09 07:30:00,
2013-11-08 23:35:00,44.1,23.0,29.80,North,0,0.0,0.0,43,0.00,,---,0.08,VWS V14.00,2013-11-09 07:35:00,
2013-11-08 23:40:00,44.1,23.0,29.80,North,0,0.0,0.0,43,0.00,,---,0.08,VWS V14.00,2013-11-09 07:40:00,
2013-11-08 23:45:00,44.1,23.0,29.80,North,0,0.0,0.0,43,0.00,,---,0.08,VWS V14.00,2013-11-09 07:45:00,
2013-11-08 23:50:00,44.1,23.0,29.80,North,0,0.0,0.0,43,0.00,,---,0.08,VWS V14.00,2013-11-09 07:50:00,
2013-11-08 23:56:00,44.1,23.0,29.80,North,0,0.0,0.0,43,0.00,,---,0.08,VWS V14.00,2013-11-09 07:56:00,